Voltar ao catálogo

ONEWEB-0429

AtivoComunicaçõesPO
NORAD 50500·PAYLOAD·🇬🇧 United Kingdom

Lançado Dec 27, 2021 de Baikonur Cosmodrome

Loading…

Próximas Passagens (próximas 24 horas)

TLE

AtualizadoSource: CelesTrak SupGP

Época: Sep 14, 2026, 23:11 UTC

1 50500C 21132AH  26257.96612685  .00001899  00000+0  48227-2 0  2572
2 50500  87.9157 317.6199 0001951  95.5315 344.0882 13.18682449    15

Acompanhe ONEWEB-0429 em tempo real com AllMySat

Download on the App Store